Time,TemperatureF,DewpointF,PressureIn,WindDirection,WindDirectionDegrees,WindSpeedMPH,WindSpeedGustMPH,Humidity,HourlyPrecipIn,Conditions,Clouds,dailyrainin,SoftwareType,DateUTC
2013-05-26 00:01:00,52.0,19.0,30.13,SW,236,6.0,9.0,27,0.00,,,0.00,,2013-05-26 06:01:00,
2013-05-26 00:12:00,52.0,19.0,30.13,SW,236,6.0,9.0,27,0.00,,,0.00,,2013-05-26 06:12:00,
2013-05-26 00:22:00,53.0,19.0,30.13,WSW,253,6.0,13.0,26,0.00,,,0.00,,2013-05-26 06:22:00,
2013-05-26 00:32:00,52.0,19.0,30.13,SW,223,4.0,9.0,27,0.00,,,0.00,,2013-05-26 06:32:00,
2013-05-26 00:42:00,52.0,19.0,30.13,SW,223,4.0,9.0,27,0.00,,,0.00,,2013-05-26 06:42:00,
2013-05-26 00:52:00,52.0,19.0,30.13,SSW,209,7.0,9.0,27,0.00,,,0.00,,2013-05-26 06:52:00,
2013-05-26 01:01:00,52.0,19.0,30.13,SW,219,7.0,12.0,27,0.00,,,0.00,,2013-05-26 07:01:00,
2013-05-26 01:11:00,52.0,19.0,30.13,SW,219,7.0,12.0,27,0.00,,,0.00,,2013-05-26 07:11:00,
2013-05-26 01:21:00,50.0,18.0,30.12,SSW,203,6.0,11.0,28,0.00,,,0.00,,2013-05-26 07:21:00,
2013-05-26 01:31:00,50.0,19.0,30.14,SW,222,7.0,11.0,29,0.00,,,0.00,,2013-05-26 07:31:00,
2013-05-26 01:42:00,50.0,19.0,30.14,SW,222,7.0,11.0,29,0.00,,,0.00,,2013-05-26 07:42:00,
2013-05-26 01:52:00,50.0,20.0,30.13,SW,232,8.0,14.0,30,0.00,,,0.00,,2013-05-26 07:52:00,
2013-05-26 02:01:00,49.0,20.0,30.13,SW,214,9.0,17.0,32,0.00,,,0.00,,2013-05-26 08:01:00,
2013-05-26 02:11:00,49.0,20.0,30.13,SW,214,9.0,17.0,32,0.00,,,0.00,,2013-05-26 08:11:00,
2013-05-26 02:21:00,49.0,20.0,30.13,SW,218,9.0,19.0,32,0.00,,,0.00,,2013-05-26 08:21:00,
2013-05-26 02:32:00,48.0,20.0,30.13,SW,228,10.0,16.0,33,0.00,,,0.00,,2013-05-26 08:32:00,
2013-05-26 02:42:00,48.0,20.0,30.13,SW,228,10.0,16.0,33,0.00,,,0.00,,2013-05-26 08:42:00,
2013-05-26 02:53:00,48.0,20.0,30.13,WSW,237,13.0,18.0,33,0.00,,,0.00,,2013-05-26 08:53:00,
2013-05-26 03:01:00,47.0,20.0,30.13,South,179,12.0,19.0,34,0.00,,,0.00,,2013-05-26 09:01:00,
2013-05-26 03:11:00,47.0,20.0,30.13,SSW,202,11.0,19.0,34,0.00,,,0.00,,2013-05-26 09:11:00,
2013-05-26 03:21:00,47.0,20.0,30.13,SSW,202,11.0,19.0,34,0.00,,,0.00,,2013-05-26 09:21:00,
2013-05-26 03:33:00,48.0,20.0,30.13,SW,219,10.0,16.0,32,0.00,,,0.00,,2013-05-26 09:33:00,
2013-05-26 03:42:00,48.0,20.0,30.13,SW,219,10.0,16.0,32,0.00,,,0.00,,2013-05-26 09:42:00,
2013-05-26 03:53:00,48.0,20.0,30.14,SSW,213,9.0,15.0,32,0.00,,,0.00,,2013-05-26 09:53:00,
2013-05-26 04:02:00,47.0,19.0,30.14,WSW,241,7.0,14.0,32,0.00,,,0.00,,2013-05-26 10:02:00,
2013-05-26 04:12:00,47.0,19.0,30.14,WSW,241,7.0,14.0,32,0.00,,,0.00,,2013-05-26 10:12:00,
2013-05-26 04:23:00,48.0,20.0,30.14,WSW,250,7.0,14.0,32,0.00,,,0.00,,2013-05-26 10:23:00,
2013-05-26 04:32:00,47.0,19.0,30.14,SSW,213,9.0,13.0,32,0.00,,,0.00,,2013-05-26 10:32:00,
2013-05-26 04:42:00,48.0,19.0,30.14,SW,227,5.0,12.0,31,0.00,,,0.00,,2013-05-26 10:42:00,
2013-05-26 04:52:00,48.0,19.0,30.14,SW,227,5.0,12.0,31,0.00,,,0.00,,2013-05-26 10:52:00,
2013-05-26 05:03:00,48.0,19.0,30.14,SW,236,6.0,12.0,31,0.00,,,0.00,,2013-05-26 11:03:00,
2013-05-26 05:11:00,48.0,19.0,30.14,SW,236,6.0,12.0,31,0.00,,,0.00,,2013-05-26 11:11:00,
2013-05-26 05:22:00,43.0,19.0,30.13,SSW,199,0.0,12.0,37,0.00,,,0.00,,2013-05-26 11:22:00,
2013-05-26 05:32:00,46.0,20.0,30.13,SSW,206,0.0,11.0,35,0.00,,,0.00,,2013-05-26 11:32:00,
2013-05-26 05:42:00,46.0,20.0,30.13,SSW,206,0.0,11.0,35,0.00,,,0.00,,2013-05-26 11:42:00,
2013-05-26 05:52:00,45.0,20.0,30.13,SSW,204,7.0,22.0,36,0.00,,,0.00,,2013-05-26 11:52:00,
2013-05-26 06:01:00,44.0,19.0,30.14,SSW,202,0.0,17.0,36,0.00,,,0.00,,2013-05-26 12:01:00,
2013-05-26 06:11:00,44.0,19.0,30.14,SSW,202,0.0,17.0,36,0.00,,,0.00,,2013-05-26 12:11:00,
2013-05-26 06:21:00,44.0,19.0,30.16,SW,221,6.0,17.0,37,0.00,,,0.00,,2013-05-26 12:21:00,
2013-05-26 06:32:00,45.0,20.0,30.15,SSW,207,7.0,13.0,36,0.00,,,0.00,,2013-05-26 12:32:00,
2013-05-26 06:42:00,45.0,20.0,30.15,SSW,207,7.0,13.0,36,0.00,,,0.00,,2013-05-26 12:42:00,
2013-05-26 06:52:00,46.0,20.0,30.15,SSW,206,10.0,16.0,35,0.00,,,0.00,,2013-05-26 12:52:00,
2013-05-26 07:02:00,49.0,22.0,30.14,SSW,204,8.0,21.0,34,0.00,,,0.00,,2013-05-26 13:02:00,
2013-05-26 07:11:00,49.0,22.0,30.14,SSW,204,8.0,21.0,34,0.00,,,0.00,,2013-05-26 13:11:00,
2013-05-26 07:21:00,50.0,21.0,30.14,WSW,240,8.0,15.0,32,0.00,,,0.00,,2013-05-26 13:21:00,
2013-05-26 07:32:00,48.0,24.0,30.15,SSW,209,6.0,12.0,38,0.00,,,0.00,,2013-05-26 13:32:00,
2013-05-26 07:42:00,49.0,25.0,30.14,SSW,202,5.0,11.0,39,0.00,,,0.00,,2013-05-26 13:42:00,
2013-05-26 07:52:00,49.0,25.0,30.14,SSW,202,5.0,11.0,39,0.00,,,0.00,,2013-05-26 13:52:00,
2013-05-26 08:02:00,51.0,26.0,30.15,SSW,213,7.0,11.0,37,0.00,,,0.00,,2013-05-26 14:02:00,
2013-05-26 08:11:00,51.0,26.0,30.15,SSW,213,7.0,11.0,37,0.00,,,0.00,,2013-05-26 14:11:00,
2013-05-26 08:21:00,54.0,27.0,30.14,SW,229,9.0,13.0,35,0.00,,,0.00,,2013-05-26 14:21:00,
2013-05-26 08:32:00,55.0,26.0,30.14,South,191,9.0,12.0,32,0.00,,,0.00,,2013-05-26 14:32:00,
2013-05-26 08:41:00,58.0,27.0,30.13,South,188,9.0,12.0,30,0.00,,,0.00,,2013-05-26 14:41:00,
2013-05-26 08:52:00,58.0,27.0,30.13,South,188,9.0,12.0,30,0.00,,,0.00,,2013-05-26 14:52:00,
2013-05-26 09:01:00,59.0,28.0,30.13,South,191,7.0,11.0,30,0.00,,,0.00,,2013-05-26 15:01:00,
2013-05-26 09:12:00,59.0,28.0,30.13,South,191,7.0,11.0,30,0.00,,,0.00,,2013-05-26 15:12:00,
2013-05-26 09:22:00,62.0,28.0,30.13,SW,220,6.0,18.0,27,0.00,,,0.00,,2013-05-26 15:22:00,
2013-05-26 09:33:00,66.0,26.0,30.12,SW,217,8.0,15.0,22,0.00,,,0.00,,2013-05-26 15:33:00,
2013-05-26 09:43:00,68.0,27.0,30.15,SW,221,6.0,13.0,21,0.00,,,0.00,,2013-05-26 15:43:00,
2013-05-26 09:53:00,68.0,27.0,30.15,SW,221,6.0,13.0,21,0.00,,,0.00,,2013-05-26 15:53:00,
2013-05-26 10:03:00,68.0,25.0,30.12,SSW,205,10.0,19.0,20,0.00,,,0.00,,2013-05-26 16:03:00,
2013-05-26 10:12:00,68.0,25.0,30.12,SSW,205,10.0,19.0,20,0.00,,,0.00,,2013-05-26 16:12:00,
2013-05-26 10:23:00,68.0,25.0,30.12,SSW,205,10.0,19.0,20,0.00,,,0.00,,2013-05-26 16:23:00,
2013-05-26 10:33:00,69.0,24.0,30.13,SSW,192,7.0,16.0,18,0.00,,,0.00,,2013-05-26 16:33:00,
2013-05-26 10:42:00,70.0,23.0,30.11,WSW,238,9.0,17.0,17,0.00,,,0.00,,2013-05-26 16:42:00,
2013-05-26 10:53:00,70.0,23.0,30.11,WSW,238,9.0,17.0,17,0.00,,,0.00,,2013-05-26 16:53:00,
2013-05-26 11:02:00,70.0,22.0,30.13,WSW,237,11.0,18.0,16,0.00,,,0.00,,2013-05-26 17:02:00,
2013-05-26 11:11:00,70.0,22.0,30.13,SSW,205,10.0,19.0,16,0.00,,,0.00,,2013-05-26 17:11:00,
2013-05-26 11:22:00,70.0,22.0,30.13,SSW,205,10.0,19.0,16,0.00,,,0.00,,2013-05-26 17:22:00,
2013-05-26 11:32:00,70.0,22.0,30.13,SSW,200,16.0,23.0,16,0.00,,,0.00,,2013-05-26 17:32:00,
2013-05-26 11:42:00,70.0,20.0,30.11,WSW,244,12.0,17.0,15,0.00,,,0.00,,2013-05-26 17:42:00,
2013-05-26 11:52:00,70.0,20.0,30.11,WSW,244,12.0,17.0,15,0.00,,,0.00,,2013-05-26 17:52:00,
2013-05-26 12:01:00,71.0,23.0,30.12,WSW,239,12.0,25.0,16,0.00,,,0.00,,2013-05-26 18:01:00,
2013-05-26 12:12:00,71.0,23.0,30.12,WSW,239,12.0,25.0,16,0.00,,,0.00,,2013-05-26 18:12:00,
2013-05-26 12:21:00,71.0,23.0,30.11,SSW,194,9.0,22.0,16,0.00,,,0.00,,2013-05-26 18:21:00,
2013-05-26 12:31:00,71.0,24.0,30.11,WSW,245,8.0,20.0,17,0.00,,,0.00,,2013-05-26 18:31:00,
2013-05-26 12:42:00,71.0,24.0,30.10,SW,218,13.0,25.0,17,0.00,,,0.00,,2013-05-26 18:42:00,
2013-05-26 12:52:00,71.0,24.0,30.10,SW,218,13.0,25.0,17,0.00,,,0.00,,2013-05-26 18:52:00,
2013-05-26 13:01:00,71.0,27.0,30.10,SE,133,2.0,14.0,19,0.00,,,0.00,,2013-05-26 19:01:00,
2013-05-26 13:11:00,71.0,27.0,30.10,SE,133,2.0,14.0,19,0.00,,,0.00,,2013-05-26 19:11:00,
2013-05-26 13:22:00,72.0,22.0,30.11,South,183,10.0,24.0,15,0.00,,,0.00,,2013-05-26 19:22:00,
2013-05-26 13:32:00,72.0,22.0,30.09,South,191,10.0,20.0,15,0.00,,,0.00,,2013-05-26 19:32:00,
2013-05-26 13:42:00,73.0,24.0,30.08,WSW,248,9.0,16.0,16,0.00,,,0.00,,2013-05-26 19:42:00,
2013-05-26 13:52:00,73.0,24.0,30.08,WSW,248,9.0,16.0,16,0.00,,,0.00,,2013-05-26 19:52:00,
2013-05-26 14:02:00,72.0,23.0,30.09,SSW,200,11.0,19.0,16,0.00,,,0.00,,2013-05-26 20:02:00,
2013-05-26 14:11:00,72.0,23.0,30.09,SSW,200,11.0,19.0,16,0.00,,,0.00,,2013-05-26 20:11:00,
2013-05-26 14:21:00,72.0,23.0,30.10,ESE,120,2.0,18.0,16,0.00,,,0.00,,2013-05-26 20:21:00,
2013-05-26 14:32:00,73.0,24.0,30.07,SSW,201,13.0,28.0,16,0.00,,,0.00,,2013-05-26 20:32:00,
2013-05-26 14:41:00,73.0,24.0,30.08,SSW,203,12.0,24.0,16,0.00,,,0.00,,2013-05-26 20:41:00,
2013-05-26 14:52:00,73.0,24.0,30.08,SSW,203,12.0,24.0,16,0.00,,,0.00,,2013-05-26 20:52:00,
2013-05-26 15:01:00,73.0,24.0,30.07,SW,234,6.0,20.0,16,0.00,,,0.00,,2013-05-26 21:01:00,
2013-05-26 15:11:00,73.0,24.0,30.07,SW,234,6.0,20.0,16,0.00,,,0.00,,2013-05-26 21:11:00,
2013-05-26 15:22:00,74.0,25.0,30.07,WSW,238,10.0,20.0,16,0.00,,,0.00,,2013-05-26 21:22:00,
2013-05-26 15:33:00,75.0,26.0,30.07,SSW,207,13.0,25.0,16,0.00,,,0.00,,2013-05-26 21:33:00,
2013-05-26 15:43:00,73.0,24.0,30.06,South,187,7.0,16.0,16,0.00,,,0.00,,2013-05-26 21:43:00,
2013-05-26 15:53:00,73.0,24.0,30.06,South,187,7.0,16.0,16,0.00,,,0.00,,2013-05-26 21:53:00,
2013-05-26 16:02:00,75.0,24.0,30.07,South,191,9.0,18.0,15,0.00,,,0.00,,2013-05-26 22:02:00,
2013-05-26 16:12:00,72.0,23.0,30.06,West,267,8.0,16.0,16,0.00,,,0.00,,2013-05-26 22:12:00,
2013-05-26 16:23:00,72.0,23.0,30.06,West,267,8.0,16.0,16,0.00,,,0.00,,2013-05-26 22:23:00,
2013-05-26 16:33:00,72.0,26.0,30.06,SSW,210,6.0,14.0,18,0.00,,,0.00,,2013-05-26 22:33:00,
2013-05-26 16:42:00,72.0,25.0,30.06,West,271,6.0,13.0,17,0.00,,,0.00,,2013-05-26 22:42:00,
2013-05-26 16:53:00,72.0,25.0,30.06,West,271,6.0,13.0,17,0.00,,,0.00,,2013-05-26 22:53:00,
2013-05-26 17:02:00,73.0,24.0,30.06,SW,236,4.0,16.0,16,0.00,,,0.00,,2013-05-26 23:02:00,
2013-05-26 17:11:00,71.0,24.0,30.06,SW,234,6.0,14.0,17,0.00,,,0.00,,2013-05-26 23:11:00,
2013-05-26 17:22:00,71.0,24.0,30.06,SW,234,6.0,14.0,17,0.00,,,0.00,,2013-05-26 23:22:00,
2013-05-26 17:32:00,70.0,23.0,30.06,WSW,242,8.0,16.0,17,0.00,,,0.00,,2013-05-26 23:32:00,
2013-05-26 17:43:00,70.0,22.0,30.06,SW,229,9.0,20.0,16,0.00,,,0.00,,2013-05-26 23:43:00,
2013-05-26 17:52:00,70.0,22.0,30.06,SW,229,9.0,20.0,16,0.00,,,0.00,,2013-05-26 23:52:00,
2013-05-26 18:02:00,69.0,24.0,30.06,WNW,290,4.0,27.0,18,0.00,,,0.00,,2013-05-27 00:02:00,
2013-05-26 18:11:00,69.0,22.0,30.04,SW,221,7.0,16.0,17,0.00,,,0.00,,2013-05-27 00:11:00,
2013-05-26 18:21:00,69.0,22.0,30.04,SW,221,7.0,16.0,17,0.00,,,0.00,,2013-05-27 00:21:00,
2013-05-26 18:31:00,68.0,23.0,30.05,WSW,257,10.0,18.0,18,0.00,,,0.00,,2013-05-27 00:31:00,
2013-05-26 18:41:00,69.0,22.0,30.04,WSW,254,7.0,13.0,17,0.00,,,0.00,,2013-05-27 00:41:00,
2013-05-26 18:52:00,69.0,22.0,30.04,WSW,254,7.0,13.0,17,0.00,,,0.00,,2013-05-27 00:52:00,
2013-05-26 19:01:00,67.0,25.0,30.03,SW,217,3.0,10.0,20,0.00,,,0.00,,2013-05-27 01:01:00,
2013-05-26 19:11:00,67.0,25.0,30.03,SW,217,3.0,10.0,20,0.00,,,0.00,,2013-05-27 01:11:00,
2013-05-26 19:22:00,67.0,25.0,30.05,SSW,209,4.0,9.0,20,0.00,,,0.00,,2013-05-27 01:22:00,
2013-05-26 19:31:00,66.0,26.0,30.04,South,186,1.0,4.0,22,0.00,,,0.00,,2013-05-27 01:31:00,
2013-05-26 19:42:00,66.0,26.0,30.05,SSW,198,3.0,5.0,22,0.00,,,0.00,,2013-05-27 01:42:00,
2013-05-26 19:52:00,66.0,26.0,30.05,SSW,198,3.0,5.0,22,0.00,,,0.00,,2013-05-27 01:52:00,
2013-05-26 20:01:00,67.0,27.0,30.05,SSW,198,3.0,7.0,22,0.00,,,0.00,,2013-05-27 02:01:00,
2013-05-26 20:11:00,65.0,24.0,30.05,South,182,4.0,10.0,21,0.00,,,0.00,,2013-05-27 02:11:00,
2013-05-26 20:21:00,65.0,24.0,30.05,South,182,4.0,10.0,21,0.00,,,0.00,,2013-05-27 02:21:00,
2013-05-26 20:32:00,66.0,24.0,30.07,SSW,205,7.0,14.0,20,0.00,,,0.00,,2013-05-27 02:32:00,
2013-05-26 20:42:00,66.0,24.0,30.07,West,267,3.0,9.0,20,0.00,,,0.00,,2013-05-27 02:42:00,
2013-05-26 20:52:00,66.0,24.0,30.07,West,267,3.0,9.0,20,0.00,,,0.00,,2013-05-27 02:52:00,
2013-05-26 21:02:00,65.0,23.0,30.07,SW,236,5.0,10.0,20,0.00,,,0.00,,2013-05-27 03:02:00,
2013-05-26 21:11:00,65.0,23.0,30.07,SW,236,5.0,10.0,20,0.00,,,0.00,,2013-05-27 03:11:00,
2013-05-26 21:21:00,65.0,23.0,30.07,WSW,240,4.0,11.0,20,0.00,,,0.00,,2013-05-27 03:21:00,
2013-05-26 21:33:00,63.0,22.0,30.06,West,271,2.0,9.0,21,0.00,,,0.00,,2013-05-27 03:33:00,
2013-05-26 21:42:00,61.0,22.0,30.08,West,279,5.0,10.0,22,0.00,,,0.00,,2013-05-27 03:42:00,
2013-05-26 21:53:00,61.0,22.0,30.08,West,279,5.0,10.0,22,0.00,,,0.00,,2013-05-27 03:53:00,
2013-05-26 22:02:00,59.0,22.0,30.07,West,273,5.0,10.0,24,0.00,,,0.00,,2013-05-27 04:02:00,
2013-05-26 22:12:00,58.0,22.0,30.08,West,274,2.0,5.0,25,0.00,,,0.00,,2013-05-27 04:12:00,
2013-05-26 22:23:00,58.0,22.0,30.08,West,274,2.0,5.0,25,0.00,,,0.00,,2013-05-27 04:23:00,
2013-05-26 22:33:00,56.0,23.0,30.08,SW,223,1.0,4.0,27,0.00,,,0.00,,2013-05-27 04:33:00,
2013-05-26 22:42:00,55.0,23.0,30.07,South,180,6.0,10.0,28,0.00,,,0.00,,2013-05-27 04:42:00,
2013-05-26 22:52:00,55.0,23.0,30.07,South,180,6.0,10.0,28,0.00,,,0.00,,2013-05-27 04:52:00,
2013-05-26 23:02:00,55.0,23.0,30.06,South,180,3.0,7.0,29,0.00,,,0.00,,2013-05-27 05:02:00,
2013-05-26 23:12:00,55.0,23.0,30.06,South,180,3.0,7.0,29,0.00,,,0.00,,2013-05-27 05:12:00,
2013-05-26 23:22:00,53.0,22.0,30.09,SSW,209,3.0,7.0,30,0.00,,,0.00,,2013-05-27 05:22:00,
2013-05-26 23:32:00,52.0,22.0,30.09,SW,223,4.0,9.0,31,0.00,,,0.00,,2013-05-27 05:32:00,
2013-05-26 23:42:00,52.0,22.0,30.09,SW,223,4.0,9.0,31,0.00,,,0.00,,2013-05-27 05:42:00,
2013-05-26 23:52:00,51.0,22.0,30.09,SSW,209,5.0,11.0,32,0.00,,,0.00,,2013-05-27 05:52:00,